Submittal Forms
Current Contests
Recent Contests

Club Activity Tracker - Maritime Contest Club (from club selection on form)

Recent postings for the selected club or group are listed below. Other than the call used, all calls listed are only those associated with the club or group. Click on a call to see the details of the posting.
Status Key: new=new posting, update=update prior posting, move=change club/group, delete=delete prior posting.

Sort by   for past

TimestampCallContestClassPowerScoreStatus
2021-05-09 13:02:00VY2LIVolta RTTYSOABLP144,040new6411
2021-05-09 12:54:26VE9VICCQ-MSOABCWLP16,269new6412
2021-05-03 16:25:33VA1RSTNewEngQPSingle OpHP5,000new6397
2021-05-03 14:58:36VY2LIInQPSingle OpLP8new6395
2021-05-03 14:55:05VY2LINewEngQPSingle OpLP1,804new6397
2021-05-03 14:43:07VY2LI7QPSOCWLP27new6394
2021-05-03 00:46:23VE9VICNewEngQPSingle OpLP37,572new6397
2021-05-03 00:30:57VE9VICDeQPSingle OpLP1,400new6396
2021-05-03 00:27:40VE9VICInQPSingle OpLP432new6395
2021-05-03 00:22:56VE9VIC7QPSO(A)CWLP8,040new6394
 
2021-05-02 21:19:50VE9AA7QPSOCWQRP25new6394
2021-05-02 21:16:00VE9AAInQPSingle OpQRP4new6395
2021-05-02 21:12:42VE9AANewEngQPSingle OpQRP4new6397
2021-05-02 12:55:28VY2LIARISO MixedLP7,200new6393
2021-05-02 11:54:48VE9HFARISO CWHP90,912new6393
2021-04-27 15:16:37VY2LISPDX RTTYSOABLP540new6372
2021-04-26 11:35:57VE9MLFlQPM/SMixedLP99,736new6375
 (VE9BK,@VE9ML)
2021-04-25 22:15:13VY2LIFlQPSOABCWLP1,260new6375
2021-04-25 21:30:54VE9HFHelvetiaSO CWHP11,132new6373
2021-04-25 14:10:19VA1RSTHelvetiaSO CWHP7,308new6373
 
2021-04-21 22:56:49VA1RSTCWopsTSingle OpHP1,560new6365
2021-04-21 22:49:42VA1RSTCWopsTSingle OpHP1,560new6346
2021-04-21 14:07:15VE9VICCWopsTSingle OpLP992new6364
2021-04-19 13:06:13VY2LICQMM DXSOABLP8,132new6356
2021-04-19 12:34:44VY2LIOnQPSO CWLP380new5642
2021-04-19 01:56:08VA1RSTCQMM DXSOABHP6,335new6356
2021-04-19 01:54:21VE9MLOnQPSO MixedLP32,967new5642
2021-04-19 01:37:34VE9CBHolyland DXSO MixedHP72new6352
2021-04-19 00:16:42VE9VICCQMM DXSOABLP49,786new6356
2021-04-18 23:34:49VE9HFCQMM DXSOABHP147,964new6356
 
2021-04-18 18:11:37VE9VICOnQPSO CWLP1,140new5642
2021-04-12 22:34:26VE9MLGagarin DXM/SLP142,384new6338
 (VE9BK,@VE9ML)
2021-04-12 14:56:41VY2LIIG-RY RTTYSingle OpLP2,016new6340
2021-04-12 14:34:52VY2LIGaQPSingle OpCWLP24new6336
2021-04-12 00:05:53VE9VICGaQPSingle OpCWLP2,208new6336
2021-04-11 21:10:39VE9VICGagarin DXSOABLP15,825new6338
2021-04-11 21:02:05VE9HFGagarin DXSOABHP88,600new